Location: Poughquag
(41.6090°N, 73.6820°W)
Time: 12:01:05
(UTC-04:00)

Tiros 1 despin weight - Pass Details

Date: 02 June 2020
Orbit: 593 x 642 km, 48.2° (Epoch: 07 July)

Event Time Altitude Azimuth Distance (km) Brightness Sun altitude
Rises 13:18:29 0° 287° (WNW) 2,911 ? 70.0°
Reaches altitude 10° 13:20:59 10° 296° (WNW) 1,995 ? 69.8°
Maximum altitude 13:25:13 36° 3° (N) 991 ? 69.5°
Drops below altitude 10° 13:29:23 10° 70° (ENE) 1,964 ? 69.2°
Sets 13:31:49 0° 80° (E) 2,859 ? 69.0°
